| time (UTC) | temp F | wind direction | speed MPH | gust MPH | rain 1hr in | rain 24hr in | rain mn in | humidity % | barometer mb |
| 20260902160040 | 29 | 315 | 0.0 | 0.0 | 0.00 | 0.00 | 0.00 | 95 | 1008.7 |
| 20260902154540 | 28 | 314 | 0.0 | 0.0 | 0.00 | 0.00 | 0.00 | 95 | 1008.7 |
| 20260902153041 | 28 | 315 | 0.0 | 0.0 | 0.00 | 0.00 | 0.00 | 96 | 1008.5 |
| 20260902151537 | 27 | 316 | 0.0 | 0.0 | 0.00 | 0.00 | 0.00 | 96 | 1008.4 |
| 20260902150035 | 27 | 315 | 0.0 | 0.0 | 0.00 | 0.00 | 0.00 | 96 | 1008.1 |
| 20260902144534 | 26 | 315 | 0.0 | 0.0 | 0.00 | 0.00 | 0.00 | 96 | 1008.0 |
| 20260902143036 | 26 | 315 | 0.0 | 0.0 | 0.00 | 0.00 | 0.00 | 95 | 1007.8 |
| 20260902141535 | 25 | 315 | 0.0 | 0.0 | 0.00 | 0.00 | 0.00 | 95 | 1007.7 |
| 20260902140029 | 25 | 359 | 0.0 | 0.0 | 0.00 | 0.00 | 0.00 | 94 | 1007.6 |
| 20260902134531 | 25 | 316 | 0.0 | 0.0 | 0.00 | 0.00 | 0.00 | 94 | 1007.5 |
| 20260902133033 | 25 | 316 | 0.0 | 0.0 | 0.00 | 0.00 | 0.00 | 94 | 1007.3 |
| 20260902131524 | 25 | 315 | 0.0 | 0.0 | 0.00 | 0.00 | 0.00 | 94 | 1007.1 |
| 20260902130027 | 25 | 315 | 0.0 | 0.0 | 0.00 | 0.00 | 0.00 | 94 | 1007.0 |
| 20260902124523 | 25 | 316 | 0.0 | 0.0 | 0.00 | 0.00 | 0.00 | 94 | 1006.9 |
| 20260902123021 | 25 | 315 | 0.0 | 0.0 | 0.00 | 0.00 | 0.00 | 93 | 1006.8 |
| 20260902121520 | 25 | 315 | 0.0 | 0.0 | 0.00 | 0.00 | 0.00 | 93 | 1006.7 |
| 20260902120019 | 26 | 315 | 0.0 | 0.0 | 0.00 | 0.00 | 0.00 | 93 | 1006.8 |
| 20260902114519 | 26 | 315 | 0.0 | 0.0 | 0.00 | 0.00 | 0.00 | 92 | 1006.9 |
| 20260902113016 | 26 | 315 | 0.0 | 0.0 | 0.00 | 0.00 | 0.00 | 92 | 1007.0 |
| 20260902111515 | 26 | 359 | 0.0 | 0.0 | 0.00 | 0.00 | 0.00 | 92 | 1007.0 |
| 20260902110017 | 27 | 359 | 0.0 | 0.0 | 0.00 | 0.00 | 0.00 | 92 | 1007.1 |
| 20260902104512 | 27 | 316 | 0.0 | 0.0 | 0.00 | 0.00 | 0.00 | 92 | 1007.0 |
| 20260902103011 | 28 | 359 | 0.0 | 0.0 | 0.00 | 0.00 | 0.00 | 91 | 1006.9 |
| 20260902101505 | 28 | 315 | 0.0 | 0.0 | 0.00 | 0.00 | 0.00 | 91 | 1006.9 |
| 20260902100004 | 29 | 315 | 0.0 | 0.0 | 0.00 | 0.00 | 0.00 | 91 | 1006.8 |
| 20260902094502 | 29 | 316 | 0.0 | 0.0 | 0.00 | 0.00 | 0.00 | 91 | 1006.8 |
| 20260902093100 | 30 | 315 | 0.0 | 2.0 | 0.00 | 0.00 | 0.00 | 91 | 1006.8 |
| 20260902091610 | 30 | 316 | 0.0 | 3.0 | 0.00 | 0.00 | 0.00 | 91 | 1006.8 |
| 20260902090104 | 30 | 359 | 0.0 | 0.0 | 0.00 | 0.00 | 0.00 | 90 | 1006.8 |
| 20260902084604 | 30 | 316 | 0.0 | 3.0 | 0.00 | 0.00 | 0.00 | 90 | 1006.8 |
| 20260902083112 | 31 | 359 | 0.0 | 3.0 | 0.00 | 0.00 | 0.00 | 90 | 1006.9 |
| 20260902081551 | 31 | 315 | 0.0 | 1.0 | 0.00 | 0.00 | 0.00 | 89 | 1006.8 |
| 20260902080048 | 32 | 315 | 0.0 | 0.0 | 0.00 | 0.00 | 0.00 | 89 | 1006.8 |
| 20260902074545 | 33 | 316 | 0.0 | 0.0 | 0.00 | 0.00 | 0.00 | 88 | 1006.8 |
| 20260902073042 | 33 | 315 | 0.0 | 1.0 | 0.00 | 0.00 | 0.00 | 88 | 1006.8 |
| 20260902071540 | 34 | 315 | 0.0 | 0.0 | 0.00 | 0.00 | 0.00 | 87 | 1006.7 |
| 20260902070042 | 35 | 315 | 0.0 | 2.0 | 0.00 | 0.00 | 0.00 | 87 | 1006.7 |
| 20260902064542 | 36 | 316 | 0.0 | 2.0 | 0.00 | 0.00 | 0.00 | 86 | 1006.8 |
| 20260902063036 | 37 | 316 | 0.0 | 1.0 | 0.00 | 0.00 | 0.00 | 85 | 1006.7 |
| 20260902061542 | 37 | 316 | 0.0 | 3.0 | 0.00 | 0.00 | 0.00 | 86 | 1006.6 |
| 20260902060028 | 38 | 315 | 0.0 | 3.0 | 0.00 | 0.00 | 0.00 | 83 | 1006.7 |
| 20260902054530 | 39 | 315 | 0.0 | 3.0 | 0.00 | 0.00 | 0.00 | 82 | 1006.6 |
| 20260902053027 | 41 | 319 | 0.0 | 2.0 | 0.00 | 0.00 | 0.00 | 80 | 1006.6 |
| 20260902051527 | 42 | 319 | 1.0 | 4.0 | 0.00 | 0.00 | 0.00 | 79 | 1006.5 |
| 20260902050026 | 43 | 359 | 0.0 | 3.0 | 0.00 | 0.00 | 0.00 | 78 | 1006.4 |
| 20260902044530 | 44 | 336 | 1.0 | 8.0 | 0.00 | 0.00 | 0.00 | 76 | 1006.3 |
| 20260902043035 | 45 | 347 | 2.0 | 6.0 | 0.00 | 0.00 | 0.00 | 74 | 1006.1 |
| 20260902041525 | 46 | 332 | 2.0 | 7.0 | 0.00 | 0.00 | 0.00 | 72 | 1006.0 |
| 20260902040024 | 47 | 359 | 4.0 | 8.0 | 0.00 | 0.00 | 0.00 | 70 | 1005.9 |
| 20260902034524 | 48 | 359 | 4.0 | 11.0 | 0.00 | 0.00 | 0.00 | 69 | 1005.9 |
| 20260902033023 | 49 | 335 | 4.0 | 11.0 | 0.00 | 0.00 | 0.00 | 67 | 1005.9 |
| 20260902031534 | 50 | 359 | 3.0 | 11.0 | 0.00 | 0.00 | 0.00 | 66 | 1005.9 |
| 20260902030025 | 51 | 347 | 3.0 | 8.0 | 0.00 | 0.00 | 0.00 | 62 | 1005.8 |
| 20260902024522 | 52 | 338 | 5.0 | 11.0 | 0.00 | 0.00 | 0.00 | 60 | 1005.8 |
| 20260902023030 | 52 | 359 | 4.0 | 8.0 | 0.00 | 0.00 | 0.00 | 61 | 1005.6 |
| 20260902021521 | 51 | 321 | 0.0 | 6.0 | 0.00 | 0.00 | 0.00 | 61 | 1005.7 |
| 20260902020026 | 51 | 292 | 3.0 | 7.0 | 0.00 | 0.00 | 0.00 | 59 | 1005.6 |
| 20260902014525 | 52 | 359 | 2.0 | 8.0 | 0.00 | 0.00 | 0.00 | 58 | 1005.8 |
| 20260902013017 | 53 | 31 | 2.0 | 9.0 | 0.00 | 0.00 | 0.00 | 59 | 1005.8 |
| 20260902011515 | 52 | 319 | 4.0 | 11.0 | 0.00 | 0.00 | 0.00 | 59 | 1005.9 |
| 20260902010014 | 52 | 4 | 4.0 | 9.0 | 0.00 | 0.00 | 0.00 | 59 | 1006.0 |
| 20260902004510 | 50 | 24 | 3.0 | 10.0 | 0.00 | 0.00 | 0.00 | 62 | 1006.2 |
| 20260902003010 | 50 | 10 | 6.0 | 10.0 | 0.00 | 0.00 | 0.00 | 61 | 1006.4 |
| 20260902001509 | 50 | 354 | 4.0 | 11.0 | 0.00 | 0.00 | 0.00 | 62 | 1006.4 |
| 20260902000009 | 50 | 359 | 3.0 | 8.0 | 0.00 | 0.00 | 0.00 | 63 | 1006.5 |
| 20260901234509 | 50 | 354 | 5.0 | 11.0 | 0.00 | 0.00 | 0.00 | 62 | 1006.5 |
| 20260901233010 | 50 | 18 | 5.0 | 10.0 | 0.00 | 0.00 | 0.00 | 63 | 1006.5 |
| 20260901231511 | 50 | 4 | 3.0 | 11.0 | 0.00 | 0.00 | 0.00 | 63 | 1006.6 |
| 20260901230007 | 50 | 332 | 6.0 | 11.0 | 0.00 | 0.00 | 0.00 | 64 | 1006.7 |
| 20260901224510 | 50 | 359 | 5.0 | 13.0 | 0.00 | 0.00 | 0.00 | 64 | 1006.6 |
| 20260901223006 | 50 | 311 | 3.0 | 11.0 | 0.00 | 0.00 | 0.00 | 64 | 1006.8 |
| 20260901221505 | 50 | 229 | 5.0 | 13.0 | 0.00 | 0.00 | 0.00 | 64 | 1006.8 |
| 20260901220002 | 50 | 303 | 3.0 | 13.0 | 0.00 | 0.00 | 0.00 | 65 | 1007.0 |
| 20260901214600 | 49 | 293 | 4.0 | 9.0 | 0.00 | 0.00 | 0.00 | 65 | 1007.2 |
| 20260901213108 | 49 | 266 | 6.0 | 10.0 | 0.00 | 0.00 | 0.00 | 65 | 1007.2 |
| 20260901211556 | 48 | 276 | 4.0 | 14.0 | 0.00 | 0.00 | 0.00 | 66 | 1007.3 |
| 20260901210055 | 48 | 315 | 3.0 | 15.0 | 0.00 | 0.00 | 0.00 | 68 | 1007.5 |
| 20260901204608 | 47 | 266 | 5.0 | 13.0 | 0.00 | 0.00 | 0.00 | 68 | 1007.7 |
| 20260901203055 | 46 | 266 | 6.0 | 15.0 | 0.00 | 0.00 | 0.00 | 69 | 1007.9 |
| 20260901201552 | 45 | 258 | 6.0 | 13.0 | 0.00 | 0.00 | 0.00 | 71 | 1007.9 |
| 20260901200112 | 45 | 280 | 7.0 | 14.0 | 0.00 | 0.00 | 0.00 | 71 | 1008.0 |
| 20260901194604 | 44 | 277 | 6.0 | 15.0 | 0.00 | 0.00 | 0.00 | 72 | 1008.1 |
| 20260901193051 | 45 | 359 | 7.0 | 17.0 | 0.00 | 0.00 | 0.00 | 71 | 1008.2 |
| 20260901191622 | 45 | 288 | 6.0 | 19.0 | 0.00 | 0.00 | 0.00 | 73 | 1008.3 |
| 20260901190045 | 45 | 359 | 6.0 | 16.0 | 0.00 | 0.00 | 0.00 | 73 | 1008.3 |
| 20260901184543 | 45 | 331 | 6.0 | 15.0 | 0.00 | 0.00 | 0.00 | 74 | 1008.3 |
| 20260901183049 | 44 | 300 | 6.0 | 15.0 | 0.00 | 0.00 | 0.00 | 76 | 1008.2 |
| 20260901181542 | 43 | 270 | 6.0 | 16.0 | 0.00 | 0.00 | 0.00 | 77 | 1008.3 |
| 20260901180038 | 43 | 303 | 6.0 | 16.0 | 0.00 | 0.00 | 0.00 | 77 | 1008.3 |
| 20260901174535 | 43 | 310 | 2.0 | 9.0 | 0.00 | 0.00 | 0.00 | 80 | 1008.3 |
| 20260901173032 | 42 | 337 | 5.0 | 13.0 | 0.00 | 0.00 | 0.00 | 80 | 1008.3 |
| 20260901171535 | 42 | 347 | 6.0 | 13.0 | 0.00 | 0.00 | 0.00 | 81 | 1008.4 |
| 20260901170029 | 41 | 359 | 6.0 | 15.0 | 0.00 | 0.00 | 0.00 | 83 | 1008.5 |
| 20260901164529 | 41 | 318 | 6.0 | 16.0 | 0.00 | 0.00 | 0.00 | 83 | 1008.6 |
| 20260901163030 | 41 | 330 | 4.0 | 11.0 | 0.00 | 0.00 | 0.00 | 84 | 1008.5 |
| 20260901161529 | 40 | 359 | 2.0 | 9.0 | 0.00 | 0.00 | 0.00 | 85 | 1008.6 |